Location: Godiavel Galaoual
(15.2485°N, 12.6604°W)
Time: 02:02:59
(UTC+00:00)

Explorer 7 - Pass Details

Date: 20 June 2021
Orbit: 484 x 676 km, 50.3° (Epoch: 29 July)

Event Time Altitude Azimuth Distance (km) Brightness Sun altitude
Rises 06:40:12 0° 297° (WNW) 2,727 10.0 3.3°
Reaches altitude 10° 06:43:07 10° 277° (W) 1,790 8.9 4.0°
Maximum altitude 06:45:46 17° 236° (SW) 1,374 8.3 4.6°
Drops below altitude 10° 06:48:21 10° 194° (SSW) 1,723 9.0 5.1°
Sets 06:51:05 0° 173° (S) 2,577 10.1 5.7°
